Weather History for Augusta Bush, GA

Change the Weather History Date:

Wednesday, October 9, 2013

  Actual Average Record
Temperature  
Mean Temperature 65 °F 67 °F  
Max Temperature 78 °F 80 °F 94 °F (2007)
Min Temperature 52 °F 54 °F 34 °F (2000)
Degree Days  
Heating Degree Days 0 2  
Month to date heating degree days 1 14  
Since 1 July heating degree days 1 21  
Cooling Degree Days 0 4  
Month to date cooling degree days 47 42  
Year to date cooling degree days 1815 2026  
Growing Degree Days 16 (Base 50)    
Moisture  
Dew Point 51 °F    
Average Humidity 64    
Maximum Humidity 93    
Minimum Humidity 35    
Precipitation  
Precipitation 0.00 in 0.11 in 2.75 in (1894)
Month to date precipitation 0.29 1.10  
Year to date precipitation 46.75 35.19  
Sea Level Pressure  
Sea Level Pressure 30.12 in    
Wind  
Wind Speed 7 mph (NNE)    
Max Wind Speed 17 mph    
Max Gust Speed 22 mph    
Visibility 10 miles    
Events      
T = Trace of Precipitation, MM = Missing Value Source: NWS Daily Summary

Daily Weather History Graph

Daily Weather History Graph

Search for Another Location

Airport:

Trip Planner

Search our weather history database for the weather conditions in past years. The results will help you decide how hot, cold, wet, or windy it might be!

Date:

Astronomy

Oct. 09, 2013 Rise Set
Actual Time 7:28 AM EDT 7:01 PM EDT
Civil Twilight 7:03 AM EDT 7:26 PM EDT
Nautical Twilight 6:34 AM EDT 7:55 PM EDT
Astronomical Twilight 6:05 AM EDT 8:23 PM EDT
Moon 12:10 PM EDT (10/9) 10:46 PM EDT (10/9)
Length of Visible Light 12h 23m
Length of Day
11h 33m
Waxing Crescent, 25% of the Moon is Illuminated
Oct 9
Waxing Crescent
Oct 11
First Quarter
Oct 18
Full
Oct 26
Last Quarter
Nov 3
New

Hourly Weather History & Observations

Time (EDT) Temp. Dew Point Humidity Pressure Visibility Wind Dir Wind Speed Gust Speed Precip Events Conditions
12:53 AM 60.1 °F 51.1 °F 72% 30.14 in 10.0 mi NE 8.1 mph - N/A   Overcast
1:53 AM 61.0 °F 52.0 °F 72% 30.13 in 10.0 mi NNE 6.9 mph - N/A   Overcast
2:53 AM 61.0 °F 52.0 °F 72% 30.13 in 10.0 mi North 11.5 mph - N/A   Overcast
3:53 AM 61.0 °F 51.1 °F 70% 30.13 in 10.0 mi NNE 10.4 mph - N/A   Overcast
4:53 AM 60.1 °F 52.0 °F 75% 30.13 in 10.0 mi NNE 9.2 mph - N/A   Overcast
5:53 AM 60.1 °F 51.1 °F 72% 30.14 in 10.0 mi NE 8.1 mph - N/A   Overcast
6:53 AM 60.1 °F 51.1 °F 72% 30.14 in 10.0 mi NNE 11.5 mph 17.3 mph N/A   Overcast
7:53 AM 60.1 °F 51.1 °F 72% 30.15 in 10.0 mi North 6.9 mph - N/A   Overcast
8:27 AM 60.8 °F 50.0 °F 68% 30.16 in 10.0 mi North 10.4 mph - N/A   Scattered Clouds
8:53 AM 62.1 °F 48.9 °F 62% 30.17 in 10.0 mi NNE 10.4 mph 20.7 mph N/A   Clear
9:53 AM 64.0 °F 48.9 °F 58% 30.18 in 10.0 mi NNE 12.7 mph - N/A   Clear
10:53 AM 66.9 °F 50.0 °F 54% 30.17 in 10.0 mi NNE 11.5 mph 18.4 mph N/A   Clear
11:53 AM 70.0 °F 50.0 °F 49% 30.16 in 10.0 mi North 10.4 mph - N/A   Clear
12:53 PM 73.0 °F 51.1 °F 46% 30.14 in 10.0 mi North 9.2 mph - N/A   Clear
1:53 PM 75.0 °F 50.0 °F 41% 30.12 in 10.0 mi North 8.1 mph - N/A   Clear
2:53 PM 77.0 °F 50.0 °F 39% 30.09 in 10.0 mi North 13.8 mph 18.4 mph N/A   Clear
3:53 PM 77.0 °F 48.9 °F 37% 30.08 in 10.0 mi Variable 6.9 mph - N/A   Clear
4:53 PM 78.1 °F 48.9 °F 36% 30.08 in 10.0 mi NNE 11.5 mph - N/A   Clear
5:53 PM 75.9 °F 48.9 °F 38% 30.08 in 10.0 mi NNE 6.9 mph - N/A   Clear
6:53 PM 69.1 °F 51.1 °F 53% 30.08 in 10.0 mi NNE 6.9 mph - N/A   Clear
7:53 PM 62.1 °F 53.1 °F 72% 30.09 in 10.0 mi Calm Calm - N/A   Clear
8:53 PM 59.0 °F 54.0 °F 83% 30.09 in 10.0 mi Calm Calm - N/A   Clear
9:53 PM 55.9 °F 52.0 °F 87% 30.11 in 10.0 mi Calm Calm - N/A   Clear
10:53 PM 54.0 °F 52.0 °F 93% 30.11 in 10.0 mi Calm Calm - N/A   Clear
11:53 PM 55.0 °F 52.0 °F 89% 30.11 in 10.0 mi Calm Calm - N/A   Clear